Flag for Germany Weather past 2 weeks in Frechen, North Rhine-Westphalia, Germany

Now
54 °F

Passing clouds.


Feels Like: 51 °F
Forecast: 41 / 62 °F
Wind: 8 mph from Southwest

Location: Noervenich

Current Time: Sep 22, 2014 at 6:50:29 AM

Latest Report: Sep 22, 2014 at 5:20 AM


Visibility: N/A

Pressure: 30.12 "Hg

Humidity: 88%

Dew point: 50 °F

Location of FrechenLocation

Historic Weather in Frechen — Graph

°F

Frechen temperature yesterday

Maximum temperature yesterday: 63 °F (at 2:20 PM)
Minimum temperature yesterday: 54 °F (at 10:20 PM)
Average temperature yesterday: 60 °F

Past Weeks' High & Low Weather Summary

 TemperatureHumidityPressure
High77 °F (Sep 19, 2:20 PM)100% (Sep 8, 8:20 AM)30.24 "Hg (Sep 8, 8:20 AM)
Low46 °F (Sep 12, 6:20 AM)50% (Sep 17, 3:20 PM)29.83 "Hg (Sep 18, 4:20 AM)
Average61 °F82%30.03 "Hg
* Reported Sep 7 5:20 AM — Sep 22 5:20 AM, Frechen, Weather by CustomWeather, © 2014

Note: Actual official high and low records may vary slightly from our data, if they occured in-between our weather recording intervals... More about our weather records

Advertising

Frechen weather history for previous 24 hours

 ConditionsComfort  
Time TempWeatherWind HumidityBarometerVisibility
5:20 AM
Sep 22
54 °FPassing clouds.8 mph88%30.12 "HgN/A
4:20 AM54 °FPassing clouds.7 mph88%30.12 "HgN/A
3:20 AM54 °FPassing clouds.8 mph94%30.15 "HgN/A
2:20 AM54 °FPassing clouds.8 mph88%30.15 "HgN/A
1:20 AM54 °FPassing clouds.8 mph88%30.12 "HgN/A
12:20 AM54 °FPassing clouds.7 mph88%30.12 "HgN/A
11:20 PM
Sep 21
54 °FPassing clouds.6 mph88%30.12 "HgN/A
10:20 PM54 °FPassing clouds.5 mph88%30.12 "HgN/A
9:20 PM57 °FPartly cloudy.6 mph72%30.12 "HgN/A
8:20 PM59 °FPartly sunny.7 mph72%30.09 "HgN/A
7:20 PM59 °FScattered clouds.9 mph68%30.07 "HgN/A
6:20 PM63 °FScattered clouds.7 mph64%30.07 "HgN/A
5:20 PM63 °FPartly sunny.9 mph64%30.04 "HgN/A
4:20 PM63 °FPartly sunny.8 mph73%30.04 "HgN/A
3:20 PM61 °FPartly sunny.10 mph77%30.04 "HgN/A
2:20 PM63 °FPartly sunny.8 mph77%30.04 "HgN/A
1:20 PM61 °FBroken clouds.8 mph88%30.04 "HgN/A
12:20 PM61 °FLight rain. Partly sunny.9 mph94%30.04 "Hg6 mi
11:20 AM61 °FCool.7 mph94%30.01 "Hg3 mi
10:20 AM61 °FCool.5 mph94%30.01 "Hg1 mi
9:20 AM61 °FCool.5 mph94%29.98 "Hg2 mi
8:20 AM61 °FCool.3 mph94%29.98 "Hg2 mi
7:20 AM61 °FCool.3 mph94%29.98 "Hg2 mi
6:20 AM61 °FCool.5 mph100%29.98 "Hg1 mi
Weather by CustomWeather, © 2014

See weather overviewHow to use our weather pages